Meteo pe oră la Ababkovo

Astăzi, 15 Iunie, Marţi

Timp Temperatura Precipitaţii Vânt Presiune Umiditate
00:00 +13°C° 0 mm 0 m/s 740 mmHg 89%
01:00 +12°C° 0 mm 0 m/s 740 mmHg 90%
02:00 +12°C° 0 mm 0 m/s 740 mmHg 91%
03:00 +13°C° 0 mm 0 m/s 740 mmHg 88%
04:00 +14°C° 0 mm 0 m/s 740 mmHg 85%
05:00 +16°C° 0 mm 1 m/s 740 mmHg 82%
06:00 +18°C° 0 mm 1 m/s 740 mmHg 75%
07:00 +19°C° 0 mm 2 m/s 739 mmHg 68%
08:00 +21°C° 0 mm 2 m/s 739 mmHg 61%
09:00 +23°C° 0 mm 2 m/s 739 mmHg 56%
10:00 +24°C° 0 mm 3 m/s 739 mmHg 51%
11:00 +25°C° 0 mm 3 m/s 738 mmHg 45%
12:00 +25°C° 0 mm 3 m/s 738 mmHg 46%
13:00 +25°C° 0 mm 3 m/s 738 mmHg 46%
14:00 +25°C° 0 mm 3 m/s 737 mmHg 46%
15:00 +25°C° 0 mm 3 m/s 737 mmHg 48%
16:00 +25°C° 0 mm 3 m/s 737 mmHg 50%
17:00 +25°C° 0 mm 3 m/s 737 mmHg 51%
18:00 +23°C° 0 mm 2 m/s 737 mmHg 59%
19:00 +20°C° 0 mm 2 m/s 737 mmHg 68%
20:00 +18°C° 0 mm 2 m/s 737 mmHg 76%
21:00 +17°C° 0 mm 2 m/s 737 mmHg 79%
22:00 +16°C° 0 mm 2 m/s 737 mmHg 82%
23:00 +15°C° 0 mm 2 m/s 737 mmHg 85%

Mâine, 16 Iunie, Miercuri

Timp Temperatura Precipitaţii Vânt Presiune Umiditate
00:00 +15°C° 0 mm 2 m/s 737 mmHg 87%
01:00 +15°C° 0 mm 2 m/s 737 mmHg 88%
02:00 +15°C° 0 mm 2 m/s 738 mmHg 89%
03:00 +15°C° 0 mm 2 m/s 738 mmHg 88%
04:00 +15°C° 0 mm 2 m/s 738 mmHg 86%
05:00 +15°C° 0 mm 2 m/s 739 mmHg 84%
06:00 +16°C° 0 mm 3 m/s 739 mmHg 73%
07:00 +17°C° 0 mm 3 m/s 740 mmHg 62%
08:00 +19°C° 0 mm 3 m/s 740 mmHg 52%
09:00 +20°C° 0 mm 3 m/s 740 mmHg 46%
10:00 +21°C° 0 mm 3 m/s 741 mmHg 41%
11:00 +22°C° 0 mm 3 m/s 741 mmHg 35%
12:00 +22°C° 0 mm 3 m/s 741 mmHg 34%
13:00 +22°C° 0 mm 3 m/s 741 mmHg 32%
14:00 +24°C° 0 mm 3 m/s 741 mmHg 30%
15:00 +24°C° 0 mm 3 m/s 742 mmHg 32%
16:00 +22°C° 0 mm 3 m/s 742 mmHg 35%
17:00 +22°C° 0 mm 3 m/s 742 mmHg 37%
18:00 +20°C° 0 mm 2 m/s 742 mmHg 46%
19:00 +17°C° 0 mm 2 m/s 743 mmHg 55%
20:00 +15°C° 0 mm 1 m/s 743 mmHg 65%
21:00 +14°C° 0 mm 1 m/s 743 mmHg 66%
22:00 +13°C° 0 mm 1 m/s 744 mmHg 67%
23:00 +12°C° 0 mm 1 m/s 744 mmHg 69%

Poimâine, 17 Iunie, Joi

Timp Temperatura Precipitaţii Vânt Presiune Umiditate
00:00 +12°C° 0 mm 1 m/s 745 mmHg 70%
01:00 +11°C° 0 mm 1 m/s 745 mmHg 70%
02:00 +10°C° 0 mm 0 m/s 745 mmHg 71%
03:00 +12°C° 0 mm 1 m/s 746 mmHg 70%
04:00 +13°C° 0 mm 1 m/s 746 mmHg 69%
05:00 +14°C° 0 mm 1 m/s 746 mmHg 68%
06:00 +16°C° 0 mm 1 m/s 746 mmHg 60%
07:00 +19°C° 0 mm 1 m/s 747 mmHg 52%
08:00 +21°C° 0 mm 1 m/s 747 mmHg 45%
09:00 +22°C° 0 mm 1 m/s 747 mmHg 41%
10:00 +23°C° 0 mm 1 m/s 747 mmHg 38%
11:00 +25°C° 0 mm 2 m/s 747 mmHg 34%
12:00 +25°C° 0 mm 2 m/s 747 mmHg 33%
13:00 +25°C° 0 mm 2 m/s 747 mmHg 32%
14:00 +26°C° 0 mm 2 m/s 747 mmHg 32%
15:00 +26°C° 0 mm 2 m/s 747 mmHg 35%
16:00 +26°C° 0 mm 2 m/s 747 mmHg 38%
17:00 +25°C° 0 mm 1 m/s 747 mmHg 42%
18:00 +23°C° 0 mm 1 m/s 747 mmHg 50%
19:00 +21°C° 0 mm 1 m/s 747 mmHg 58%
20:00 +19°C° 0 mm 1 m/s 747 mmHg 66%
21:00 +18°C° 0 mm 1 m/s 747 mmHg 68%
22:00 +16°C° 0 mm 1 m/s 747 mmHg 70%
23:00 +15°C° 0 mm 0 m/s 748 mmHg 72%

18 Iunie, Vineri

Timp Temperatura Precipitaţii Vânt Presiune Umiditate
00:00 +15°C° 0 mm 1 m/s 748 mmHg 74%
01:00 +15°C° 0 mm 1 m/s 748 mmHg 75%
02:00 +14°C° 0 mm 1 m/s 748 mmHg 77%
03:00 +15°C° 0 mm 1 m/s 748 mmHg 76%
04:00 +15°C° 0 mm 1 m/s 748 mmHg 75%
05:00 +16°C° 0 mm 1 m/s 749 mmHg 74%
06:00 +19°C° 0 mm 1 m/s 749 mmHg 66%
07:00 +21°C° 0 mm 1 m/s 749 mmHg 58%
08:00 +23°C° 0 mm 2 m/s 749 mmHg 50%
09:00 +25°C° 0 mm 2 m/s 749 mmHg 46%
10:00 +26°C° 0 mm 2 m/s 749 mmHg 41%
11:00 +27°C° 0 mm 3 m/s 749 mmHg 37%
12:00 +28°C° 0 mm 3 m/s 748 mmHg 36%
13:00 +28°C° 0 mm 3 m/s 748 mmHg 36%
14:00 +29°C° 0 mm 3 m/s 748 mmHg 35%
15:00 +28°C° 0 mm 3 m/s 748 mmHg 38%
16:00 +28°C° 0 mm 3 m/s 747 mmHg 41%
17:00 +28°C° 0 mm 3 m/s 747 mmHg 44%
18:00 +25°C° 0 mm 3 m/s 747 mmHg 54%
19:00 +23°C° 0 mm 2 m/s 747 mmHg 64%
20:00 +20°C° 0 mm 2 m/s 747 mmHg 74%
21:00 +19°C° 0 mm 2 m/s 747 mmHg 76%
22:00 +18°C° 0 mm 2 m/s 747 mmHg 79%
23:00 +17°C° 0 mm 2 m/s 748 mmHg 81%

19 Iunie, Sâmbătă

Timp Temperatura Precipitaţii Vânt Presiune Umiditate
00:00 +16°C° 0 mm 2 m/s 748 mmHg 83%
01:00 +16°C° 0 mm 2 m/s 748 mmHg 84%
02:00 +15°C° 0 mm 2 m/s 748 mmHg 85%
03:00 +16°C° 0 mm 2 m/s 748 mmHg 83%
04:00 +16°C° 0 mm 2 m/s 748 mmHg 82%
05:00 +17°C° 0 mm 2 m/s 748 mmHg 80%
06:00 +19°C° 0 mm 2 m/s 748 mmHg 72%
07:00 +21°C° 0 mm 3 m/s 748 mmHg 64%
08:00 +24°C° 0 mm 3 m/s 748 mmHg 56%
09:00 +25°C° 0 mm 3 m/s 748 mmHg 50%
10:00 +27°C° 0 mm 3 m/s 748 mmHg 44%
11:00 +28°C° 0 mm 3 m/s 748 mmHg 39%
12:00 +28°C° 0 mm 3 m/s 748 mmHg 38%
13:00 +29°C° 0 mm 3 m/s 747 mmHg 36%
14:00 +30°C° 0 mm 3 m/s 747 mmHg 35%
15:00 +29°C° 0 mm 3 m/s 747 mmHg 38%
16:00 +29°C° 0 mm 2 m/s 747 mmHg 40%
17:00 +29°C° 0 mm 2 m/s 746 mmHg 43%
18:00 +27°C° 0 mm 2 m/s 746 mmHg 53%
19:00 +25°C° 0 mm 2 m/s 746 mmHg 62%
20:00 +21°C° 0 mm 2 m/s 746 mmHg 72%
21:00 +20°C° 0 mm 2 m/s 746 mmHg 76%
22:00 +19°C° 0 mm 2 m/s 746 mmHg 80%
23:00 +18°C° 0 mm 2 m/s 747 mmHg 84%

20 Iunie, Duminică

Timp Temperatura Precipitaţii Vânt Presiune Umiditate
00:00 +18°C° 0 mm 2 m/s 747 mmHg 86%
01:00 +17°C° 0 mm 2 m/s 747 mmHg 87%
02:00 +18°C° 0 mm 1 m/s 747 mmHg 89%
03:00 +19°C° 0 mm 1 m/s 747 mmHg 86%
04:00 +19°C° 0 mm 1 m/s 747 mmHg 84%
05:00 +20°C° 0 mm 1 m/s 747 mmHg 82%
06:00 +22°C° 0 mm 1 m/s 747 mmHg 74%
07:00 +24°C° 0 mm 1 m/s 747 mmHg 66%
08:00 +26°C° 0 mm 1 m/s 747 mmHg 58%
09:00 +27°C° 0 mm 1 m/s 747 mmHg 53%
10:00 +28°C° 0 mm 1 m/s 747 mmHg 49%
11:00 +29°C° 0 mm 1 m/s 747 mmHg 44%
12:00 +30°C° 0 mm 2 m/s 746 mmHg 42%
13:00 +30°C° 0 mm 2 m/s 746 mmHg 40%
14:00 +31°C° 0 mm 2 m/s 746 mmHg 37%
15:00 +30°C° 0 mm 2 m/s 746 mmHg 39%
16:00 +30°C° 0 mm 2 m/s 745 mmHg 42%
17:00 +30°C° 0 mm 2 m/s 745 mmHg 44%
18:00 +27°C° 0 mm 2 m/s 745 mmHg 54%
19:00 +25°C° 0 mm 2 m/s 745 mmHg 64%
20:00 +23°C° 0 mm 2 m/s 745 mmHg 75%
21:00 +21°C° 0 mm 2 m/s 745 mmHg 76%
22:00 +20°C° 0 mm 2 m/s 745 mmHg 78%
23:00 +19°C° 0 mm 2 m/s 745 mmHg 79%
Arată mai mult

Formular de consimțământ

Meteoprog și furnizorii noștri de servicii pot stoca și accesa date personale, precum cookies, identificatori de dispozitiv sau alte tehnologii similare pe dispozitivul dumneavoastră și procesa astfel de date pentru a personaliza conținutul și reclamele, dar și pentru a oferi caracteristici de social media și pentru a analiza traficul.

  • Stocarea și/sau accesarea informațiilor pe dispozitivul dumneavoastră

    Cookies, identificatori de dispozitiv sau alte informații pot fi stocate sau accesate pe dispozitiv în scopurile indicate mai sus.

  • Reclame și conținut personalizat, evaluarea reclamelor și a conținutului, informații despre audiențe și dezvoltarea produselor

    Reclamele și conținutul pot fi personalizate pe baza unui profil. Pot fi adăugate date suplimentare pentru a personaliza mai bine reclamele și conținutul. Performanța reclamelor și conținutului poate fi măsurată. Pot fi obținute informații despre utilizatorii care au văzut reclamele și conținutul. Aceste date pot fi utilizate pentru a dezvolta sau îmbunătăți experiența utilizatorilor, sistemele și software-ul.

Dând clic pe ‘Sunt de acord’, permiteți utilizarea cookie-urilor menționate, a identificatorilor de dispozitiv, balizelor web sau altor tehnologii similare. Setările pot fi modificate din browser-ul dispozitivului dumneavoastră.

În anumite scopuri, interesele legitime pot prima asupra consimțământului. Puteți citi mai multe informații în acest sens în Politica privind Confidențialitatea Datelor și Cookie.